NOAA NWS Hourly Roundups by Site

Regional Weather Roundup for Omaha, NE

To Select Another Site Choose from List

Select Site:  

000
ASUS43 KOAX 192210
RWRNE

WEATHER ROUNDUP FOR NEBRASKA
NATIONAL WEATHER SERVICE OMAHA NE
500 PM CDT FRI APR 19 2019

NOTES: SATELLITE DATA IS BEING USED TO AUGMENT CLOUD COVER ABOVE
       12000 FEET.
       "FAIR" INDICATES FEW OR NO CLOUDS BELOW 12,000 FEET WITH NO
       SIGNIFICANT WEATHER AND/OR OBSTRUCTIONS TO VISIBILITY.


NEZ001>004-019>022-054>056-192300-
NEBRASKA PANHANDLE

CITY           SKY/WX    TMP DP  RH WIND       PRES   REMARKS
SCOTTSBLUFF    FAIR      78  36  21 W9        29.95F
ALLIANCE       FAIR      76  36  23 N16       29.93F
CHADRON        FAIR      77  39  25 NW15      29.89F
GORDON         FAIR      74  36  24 CALM      29.91F
KIMBALL        FAIR      72  30  21 NW9       30.02F
SIDNEY         FAIR      73  37  27 NW9G16    29.99F
$$

NEZ057>060-069>072-079>082-192300-
SOUTHWEST NEBRASKA

CITY           SKY/WX    TMP DP  RH WIND       PRES   REMARKS
NORTH PLATTE   FAIR      73  35  25 SW5       29.95F
IMPERIAL       FAIR      75  29  18 VRB6      29.97F
LEXINGTON      FAIR      69  32  25 W9        29.98F
MCCOOK         FAIR      70  31  23 MISG      29.99F
OGALLALA       FAIR      75  33  21 CALM      29.95F
$$

NEZ005>010-023>029-035>040-094-192300-
NORTH CENTRAL NEBRASKA

CITY           SKY/WX    TMP DP  RH WIND       PRES   REMARKS
VALENTINE      FAIR      77  34  21 NW12G21   29.88F
AINSWORTH      FAIR      71  33  24 S9G17     29.91F
BROKEN BOW     FAIR      70  34  26 SW9       29.96F
O`NEILL        FAIR      67  31  26 S6        29.95F
ORD            FAIR      68  32  26 MISG      29.95F
THEDFORD       FAIR      74  35  23 SW6       29.92F
$$

NEZ041-046>049-061>064-073>077-083>087-192300-
SOUTH CENTRAL NEBRASKA

CITY           SKY/WX    TMP DP  RH WIND       PRES   REMARKS
GRAND ISLAND   FAIR      66  31  27 NW6       30.00F
AURORA         FAIR      64  29  26 W6        30.00F
HASTINGS       FAIR      65  30  27 NW10      30.01F
HEBRON         FAIR      66  27  23 W6        30.01F
HOLDREGE       FAIR      65  37  35 S9        30.00F
KEARNEY        FAIR      65  33  30 W8G16     30.00F
YORK           FAIR      64  30  27 CALM      30.00F
$$

NEZ011>018-030>034-042>045-192300-
NORTHEAST NEBRASKA

CITY           SKY/WX    TMP DP  RH WIND       PRES   REMARKS
NORFOLK        FAIR      65  31  28 S8        29.96F
ALBION         FAIR      65  30  26 SW6       29.98F
BLAIR          FAIR      64  28  25 CALM      29.99S
COLUMBUS       FAIR      64  32  30 CALM      30.00F
FREMONT        FAIR      66  26  22 NW5       30.00F
TEKAMAH        FAIR      66  28  24 N8        29.98F
WAYNE          FAIR      64   8  11 W5        29.97F
$$

NEZ050>053-065>068-078-088>093-192300-
SOUTHEAST NEBRASKA

CITY           SKY/WX    TMP DP  RH WIND       PRES   REMARKS
LINCOLN        FAIR      67  28  23 CALM      30.00F
OMAHA EPPLEY   FAIR      66  28  24 N12       29.99F
BEATRICE       FAIR      65  30  26 CALM      30.00F
FALLS CITY     FAIR      64  32  30 NW9G22    29.99F
NEBRASKA CITY  FAIR      62  26  24 NE9       30.00F
PLATTSMOUTH    FAIR      63  31  29 NE10      30.00F
$$

NEZ044-045-051>053-067-192300-
OMAHA AREA

CITY           SKY/WX    TMP DP  RH WIND       PRES   REMARKS
OMAHA EPPLEY   FAIR      66  28  24 N12       29.99F
BLAIR          FAIR      64  28  25 CALM      29.99S
FREMONT        FAIR      66  26  22 NW5       30.00F
MILLARD        FAIR      65  31  28 CALM      29.99F
PLATTSMOUTH    FAIR      63  31  29 NE10      30.00F
WAHOO          FAIR      65  29  25 CALM      29.99F
$$


 

View Past Reports for Omaha, NE.

Products Courtesy of NOAA-NWS
NWS Information Parsing Script by Ken True at Saratoga Weather - Script by SE Lincoln Weather.